This is the latest recevied weather packets stored in our database for station/object KF7SOJ. If no packets are shown the sender has not sent any weather packets the latest 10 day(s).
| Time | Temp. | Humidity | Pressure | Rain* | Wind** | Luminosity | Snow |
|---|---|---|---|---|---|---|---|
| 1788139724 | 21.11° C | 32% | 929.2 hPa | 0 mm | - | 25 W/m² | - |
| 1788139420 | 21.67° C | 32% | 929.2 hPa | 0 mm | - | 30 W/m² | - |
| 1788139119 | 22.22° C | 31% | 929.3 hPa | 0 mm | - | 34 W/m² | - |
| 1788138814 | 22.78° C | 29% | 929.4 hPa | 0 mm | - | 45 W/m² | - |
| 1788138510 | 22.78° C | 28% | 929.4 hPa | 0 mm | - | 52 W/m² | - |
| 1788138210 | 22.78° C | 28% | 929.2 hPa | 0 mm | - | 56 W/m² | - |
| 1788137906 | 22.78° C | 28% | 929.3 hPa | 0 mm | - | 62 W/m² | - |
| 1788137601 | 22.78° C | 29% | 929.2 hPa | 0 mm | - | 69 W/m² | - |
| 1788137296 | 22.78° C | 30% | 929.3 hPa | 0 mm | - | 77 W/m² | - |
| 1788136992 | 22.78° C | 28% | 929.1 hPa | 0 mm | - | 87 W/m² | - |
| 1788136687 | 22.78° C | 29% | 929.1 hPa | 0 mm | - | 102 W/m² | - |
| 1788136384 | 22.78° C | 27% | 929.1 hPa | 0 mm | - | 117 W/m² | - |
| 1788136083 | 22.78° C | 27% | 929.1 hPa | 0 mm | - | 134 W/m² | - |
| 1788135777 | 22.78° C | 28% | 929 hPa | 0 mm | - | 149 W/m² | - |
| 1788135473 | 22.78° C | 28% | 929.1 hPa | 0 mm | - | 166 W/m² | - |
| 1788135168 | 22.78° C | 28% | 929 hPa | 0 mm | - | 185 W/m² | - |
| 1788134866 | 23.33° C | 27% | 929.1 hPa | 0 mm | - | 204 W/m² | - |
| 1788134564 | 23.33° C | 28% | 929.1 hPa | 0 mm | - | 223 W/m² | - |
| 1788134263 | 23.33° C | 28% | 929 hPa | 0 mm | - | 241 W/m² | - |
| 1788133958 | 23.33° C | 28% | 929.1 hPa | 0 mm | - | 261 W/m² | - |
| 1788133653 | 23.33° C | 29% | 929 hPa | 0 mm | - | 280 W/m² | - |
| 1788133350 | 23.33° C | 28% | 929 hPa | 0 mm | - | 298 W/m² | - |
| 1788133045 | 23.33° C | 29% | 929 hPa | 0 mm | - | 314 W/m² | - |
| 1788132740 | 23.89° C | 29% | 929 hPa | 0 mm | - | 332 W/m² | - |
| 1788132435 | 24.44° C | 27% | 929.1 hPa | 0 mm | - | 349 W/m² | - |
* Rain latest hour (hover to see other rain measurements)
** Current wind speed in m/s (hover to see current wind gust speed)